星链-32043 (STARLINK-32043)

导读

STARLINK-32043是美国太空探索技术公司(SpaceX)于2024年6月27日发射的星链低轨通信卫星,归属星链全球宽带互联网星座计划。作为量产型通信卫星,它采用平板设计,搭载Ku/Ka波段通信载荷,配备氪工质霍尔推进器,具备自主避撞能力,设计使用寿命约5-7年,退役后将主动离轨再入大气层烧毁。

基本信息
目录编号:
60135
目录名称:
STARLINK-32043
国际标识:
2024-120A
轨道中心:
EARTH
卫星名称:
星链-32043
卫星全名:
星链-32043 (STARLINK-32043)
卫星状态:
在轨 (已飞行799 天)
发射日期:
2024-06-27 UTC
国别 :
美国 (US)
星等 :
--
轨道信息
数据来源 国际轨道数据 AOE轨道数据
星历时间 2026-09-03T22:23:26+0800
16小时前
查看轨道信息
2026-08-29T10:00:00+0800
6天前
查看轨道信息
半长轴 6840.868km 6840.87km
偏心率 0.0001312 0.0000829
轨道倾角 53.159° 53.157°
近地点辐角 81.488° 82.829°
升交点赤经 210.811° 236.601°
平近点角 278.627° 29.456°
近地点 461.833km 462.165km
远地点 463.629km 463.301km
周期 93.848分钟 93.848分钟
每日圈数 15.343908 15.343902
详细信息
固有亮度:
5
最大亮度:
2.5
卫星平台:
Starlink V1.0
覆盖范围:
全球
运营商:
太空探索技术公司
运营商所在国:
美国
制造商(研发单位):
太空探索技术公司
制造商所在国:
美国
使用方式:
暂无
卫星简介
Starlink 计划是 SpaceX 推出的全球卫星互联网项目,通过发射低轨道卫星,为全球尤其是偏远地区提供高速、低延迟的互联网服务。自 2019 年起,Starlink 已部署数千颗卫星,旨在缩小全球数字鸿沟,推动互联网普及。该项目还为军事、航空等行业提供通信支持,带来广泛经济效益。
2D轨道图
3D轨道图
轨道高度分析图
轨道倾角分析图
轨道综合分析图
查看轨道综合分析图